[[{"header":{"parameterUnit":"m.s-1","parameterCategory":2,"la1":30.2991,"la2":30.254,"lo1":-89.0895,"lo2":-89.0444,"dy":0.0017,"dx":0.0017,"nx":28,"ny":28,"refTime":"2025-11-25T03:00:00:Z","depth":"0","parameterNumber":2,"parameterNumberName":"U-component_of_CURRENTS"},"data":[0,0,0,0,0,0,0,0,0,0,0,0,0,0,0,0,0,0,0,0,0,0,0,0,0,0,0,0,0,0,0,0,0,0,0,0,0,0,0,0,0,0,0,0,0,0,0,0,0,0,0,0,0,0,0,0,0,0,0.2254,0.2254,0,0.2291,0.2292,0.2292,0.23,0.23,0.2299,0.2299,0.2325,0.2326,0.2327,0,0,0,0,0,0,0,0,0,0,0,0,0,0.2193,0.2194,0.2254,0.2254,0.2255,0.2291,0.2292,0.2292,0.23,0.23,0.2299,0.2299,0.2325,0.2326,0.2327,0,0,0,0,0,0,0,0,0,0,0,0,0,0.2223,0.2194,0.2254,0.2264,0.2266,0.2291,0.2292,0.2292,0.23,0.23,0.2299,0.2299,0.2324,0.2326,0.2327,0.2339,0,0,0.2331,0.2331,0,0,0,0,0,0,0,0,0.2221,0.2225,0.2262,0.2263,0.2265,0.2292,0.228,0.2308,0.23,0.2285,0.2299,0.2299,0.2314,0.2316,0.2322,0.234,0.2341,0.2331,0.2331,0.2332,0.2332,0,0,0,0,0,0,0,0.2219,0.2223,0.2267,0.2263,0.2265,0.2269,0.2272,0.2285,0.2299,0.2287,0.2288,0.2294,0.2314,0.232,0.2322,0.2342,0.2331,0.2332,0.2333,0.2333,0.2396,0.2397,0,0,0,0,0,0,0.2217,0.2221,0.2266,0.2268,0.2244,0.227,0.2274,0.2282,0.2299,0.2302,0.2294,0.2294,0.2318,0.2321,0.2323,0.2358,0.2332,0.2333,0.2334,0.2395,0.2396,0.2397,0,0,0,0,0,0,0.2216,0.2221,0.2264,0.2247,0.2253,0.2271,0.228,0.2283,0.2291,0.2305,0.2308,0.23,0.2318,0.2322,0.2339,0.2358,0.2334,0.2335,0.2394,0.2395,0.2396,0.2415,0,0,0,0,0,0,0.2214,0.222,0.2223,0.2247,0.2254,0.2282,0.2281,0.2284,0.2296,0.2297,0.2311,0.2313,0.2318,0.2337,0.234,0.236,0.2336,0.2393,0.2394,0.2396,0.2414,0.2417,0.242,0,0,0,0,0,0.2212,0.2216,0.2223,0.2228,0.2258,0.2282,0.2286,0.2298,0.2297,0.2303,0.2313,0.2313,0.235,0.2339,0.2342,0.2362,0.2392,0.2394,0.2396,0.2412,0.2416,0.242,0,0,0,0,0,0,0.2187,0.2218,0.2226,0.2238,0.226,0.2284,0.2291,0.2299,0.2313,0.2313,0.2321,0.2324,0.235,0.2352,0.2339,0.2386,0.2373,0.2376,0.2384,0.2388,0.2391,0.2402,0.2337,0,0,0,0,0,0.2185,0.2199,0.2227,0.2238,0.2249,0.227,0.228,0.2292,0.2309,0.2314,0.2324,0.2339,0.2362,0.237,0.2387,0.2408,0.2427,0.2425,0.2429,0.2431,0.2443,0.2488,0.2497,0.2404,0.2404,0.2404,0,0,0.2177,0.2197,0.2204,0.2234,0.2251,0.2273,0.2276,0.2296,0.2316,0.2315,0.2338,0.2351,0.2371,0.2398,0.241,0.2401,0.2467,0.2434,0.2436,0.2446,0.2492,0.2501,0.2509,0.2405,0.2405,0.2405,0,0,0.2174,0.219,0.2202,0.2224,0.2255,0.2273,0.2279,0.2306,0.232,0.2344,0.2355,0.238,0.2401,0.2426,0.2441,0.2473,0.2485,0.2477,0.2501,0.2545,0.2553,0.256,0.2592,0.2602,0.2476,0.2476,0.2477,0,0.2164,0.2187,0.2208,0.223,0.2251,0.2273,0.2295,0.2316,0.2344,0.2365,0.2353,0.2413,0.242,0.2474,0.2482,0.2482,0.2504,0.2481,0.2549,0.2557,0.2565,0.2596,0.2606,0.2478,0.2478,0.2477,0.2477,0,0.2176,0.2196,0.2206,0.2244,0.2267,0.229,0.2326,0.2348,0.2363,0.2388,0.2438,0.2454,0.2492,0.2498,0.2498,0.2559,0.2557,0.2549,0.2538,0.2575,0.2605,0.2616,0.2479,0.2479,0.2479,0.2478,0,0,0.2152,0.2204,0.2207,0.2228,0.2279,0.2298,0.2341,0.2389,0.2427,0.2449,0.2502,0.2533,0.2546,0.2564,0.2574,0.2606,0.2666,0.2598,0.2599,0.2628,0.2762,0.2757,0.2768,0.2671,0.2674,0.2675,0.276,0,0.2156,0.219,0.2223,0.226,0.2282,0.2326,0.2366,0.2414,0.2457,0.2511,0.2545,0.2595,0.2571,0.2596,0.2626,0.2665,0.2698,0.2644,0.2724,0.2726,0.2716,0.2782,0.2739,0.2812,0.2771,0.2773,0.2774,0,0.2159,0.2185,0.2216,0.2276,0.2291,0.2317,0.2395,0.2435,0.2521,0.2563,0.2621,0.2651,0.2712,0.2682,0.2765,0.2733,0.275,0.2769,0.2773,0.2772,0.2742,0.277,0.2833,0.2804,0.2791,0.279,0.2789,0,0.2127,0.2181,0.2204,0.2224,0.2292,0.2319,0.2358,0.2444,0.2495,0.2601,0.265,0.2728,0.2771,0.2811,0.2842,0.2813,0.2932,0.2895,0.2907,0.2906,0.2889,0.2883,0.2935,0.2957,0.2957,0.2956,0.2956,0,0.2119,0.2136,0.2187,0.2199,0.2236,0.2296,0.2353,0.2417,0.252,0.2587,0.2665,0.2738,0.2806,0.2873,0.2886,0.2943,0.2969,0.2936,0.2941,0.2893,0.2887,0.2875,0.2849,0.296,0.2959,0.2958,0.2958,0,0.2075,0.2109,0.2135,0.2198,0.2217,0.224,0.2332,0.238,0.2489,0.2582,0.2618,0.2762,0.2863,0.2923,0.3012,0.3002,0.2987,0.3062,0.2999,0.2995,0.2957,0.2934,0.2824,0.2724,0.3092,0.3092,0.3093,0,0.2053,0.2062,0.2112,0.2124,0.2148,0.2195,0.2229,0.2346,0.2405,0.2589,0.2627,0.2776,0.2871,0.3016,0.3061,0.3119,0.3011,0.3091,0.3022,0.2976,0.2954,0.2773,0.2682,0.3005,0.3005,0.3004,0.3004,0,0.2016,0.203,0.2051,0.2075,0.21,0.2136,0.2197,0.2242,0.2383,0.2474,0.2612,0.2714,0.2895,0.2979,0.3082,0.3098,0.2964,0.3086,0.3064,0.2923,0.2705,0.2604,0.2918,0.3002,0.3002,0.3003,0.3003,0.3003,0.1986,0.1985,0.2013,0.2032,0.2051,0.2074,0.2083,0.2165,0.2251,0.2376,0.2526,0.2655,0.2879,0.3037,0.3034,0.3052,0.2943,0.2999,0.2986,0.2813,0.2679,0.2986,0.3056,0.3056,0.3056,0.3057,0.3057,0,0.1958,0.1965,0.1974,0.199,0.1981,0.2016,0.2057,0.206,0.2116,0.2276,0.239,0.263,0.2783,0.2927,0.3054,0.2983,0.2787,0.2922,0.2682,0.2603,0.2935,0.2898,0.2906,0.2906,0.2906,0.2906,0.2906,0.2906,0.195,0.1946,0.195,0.1927,0.1924,0.1889,0.1892,0.1907,0.1992,0.2116,0.225,0.2402,0.2731,0.2999,0.3017,0.2938,0.2701,0.2606,0.2529,0.2835,0.2841,0.2846,0.2806,0.2794,0.2794,0.2081,0.2077,0.2073]},{"header":{"parameterUnit":"m.s-1","parameterCategory":2,"la1":30.2991,"la2":30.254,"lo1":-89.0895,"lo2":-89.0444,"dy":0.0017,"dx":0.0017,"nx":28,"ny":28,"refTime":"2025-11-25T03:00:00:Z","depth":"0","parameterNumber":3,"parameterNumberName":"V-component_of_CURRENTS"},"data":[0,0,0,0,0,0,0,0,0,0,0,0,0,0,0,0,0,0,0,0,0,0,0,0,0,0,0,0,0,0,0,0,0,0,0,0,0,0,0,0,0,0,0,0,0,0,0,0,0,0,0,0,0,0,0,0,0,0,0.0223,0.0222,0,0.0163,0.0162,0.0162,0.0119,0.0119,0.0118,0.0118,0.0032,0.003,0.0028,0,0,0,0,0,0,0,0,0,0,0,0,0,0.0252,0.0251,0.0223,0.0222,0.0222,0.0163,0.0162,0.0161,0.0119,0.0119,0.0118,0.0118,0.0033,0.003,0.0028,0,0,0,0,0,0,0,0,0,0,0,0,0,0.0219,0.0251,0.0223,0.0195,0.0191,0.0164,0.0162,0.0161,0.0119,0.0119,0.0118,0.0118,0.0034,0.0031,0.0028,0.0015,0,0,0.0018,0.0017,0,0,0,0,0,0,0,0,0.0221,0.0218,0.0199,0.0196,0.0193,0.0149,0.0141,0.0111,0.0119,0.0145,0.0118,0.0118,0.007,0.0064,0.0052,0.0011,0.0007,0.0018,0.0016,0.0014,0.0014,0,0,0,0,0,0,0,0.0223,0.022,0.0198,0.0199,0.0195,0.0168,0.0163,0.0135,0.0108,0.0143,0.014,0.0136,0.0068,0.0055,0.0049,0.0006,0.0018,0.0015,0.0013,0.0012,-0.0047,-0.0046,0,0,0,0,0,0,0.0237,0.0222,0.02,0.0196,0.0208,0.0168,0.0163,0.0163,0.0109,0.0101,0.0136,0.0134,0.006,0.0053,0.0046,0.0037,0.0014,0.0012,0.001,-0.0047,-0.0047,-0.0046,0,0,0,0,0,0,0.0238,0.0235,0.0202,0.0209,0.0203,0.0169,0.0168,0.0162,0.015,0.0105,0.0096,0.0132,0.006,0.0051,0.0028,0.0033,0.001,0.0007,-0.0047,-0.0047,-0.0046,0.0012,0,0,0,0,0,0,0.0239,0.0236,0.024,0.021,0.0203,0.0192,0.0168,0.0161,0.0149,0.0145,0.0098,0.009,0.0059,0.0033,0.0025,0.0028,0.0005,-0.0048,-0.0047,-0.0047,0.001,0.0015,0.0019,0,0,0,0,0,0.024,0.025,0.0241,0.0238,0.021,0.0192,0.0186,0.0159,0.0149,0.0147,0.0118,0.0091,0.0031,0.0031,0.0021,0.0024,-0.0048,-0.0047,-0.0047,0.0008,0.0014,0.0019,0,0,0,0,0,0,0.0264,0.0246,0.0235,0.0239,0.022,0.0186,0.0184,0.0165,0.014,0.0139,0.0095,0.0085,0.0066,0.0038,0.0039,0.0009,-0.0013,-0.0014,0.0032,0.0037,0.0041,0.0055,0.0002,0,0,0,0,0,0.0273,0.0276,0.0251,0.0254,0.0248,0.0217,0.0207,0.019,0.0164,0.0153,0.0121,0.0089,0.0061,0.0045,0.0016,0.0,-0.0028,-0.0004,0.0,0.0004,0.0009,-0.0028,-0.0026,-0.0044,-0.0044,-0.0044,0,0,0.0283,0.0273,0.0274,0.0259,0.0243,0.0242,0.021,0.0201,0.0198,0.0148,0.0136,0.0103,0.006,0.0043,0.0032,0.0021,-0.0004,0.0005,0.0009,0.0011,-0.0027,-0.0025,-0.0023,-0.0043,-0.0043,-0.0043,0,0,0.0307,0.0297,0.0309,0.0298,0.0281,0.0263,0.0264,0.0235,0.0221,0.0204,0.0169,0.0142,0.0099,0.0071,0.005,0.0062,0.0021,0.0052,0.0084,0.0049,0.005,0.0051,0.0024,0.0022,0.0054,0.0054,0.0054,0,0.0319,0.0331,0.0308,0.0316,0.0315,0.0278,0.029,0.0269,0.0236,0.0231,0.021,0.0151,0.0113,0.0091,0.0092,0.0072,0.0048,0.0069,0.0055,0.0055,0.0055,0.0027,0.0024,0.0057,0.0057,0.0056,0.0056,0,0.0351,0.036,0.0367,0.0367,0.0361,0.0366,0.034,0.033,0.0308,0.0286,0.0261,0.0206,0.0173,0.0153,0.0123,0.0105,0.0089,0.0066,0.0044,0.006,0.003,0.0026,0.0061,0.006,0.0059,0.0059,0,0,0.038,0.0389,0.0391,0.0407,0.0391,0.0394,0.0391,0.0381,0.0391,0.0341,0.0343,0.028,0.0251,0.0225,0.0181,0.0145,0.0118,0.0109,0.0106,0.0087,0.0047,0.0049,0.0043,0.0093,0.0093,0.0092,0.0029,0,0.0413,0.0447,0.0438,0.0471,0.049,0.0462,0.0465,0.045,0.0431,0.0423,0.0357,0.0341,0.0278,0.0267,0.0218,0.015,0.0108,0.0138,0.0029,0.0026,0.0029,0.0039,0.0071,0.0018,0.0024,0.0023,0.0023,0,0.0448,0.0469,0.0509,0.0535,0.054,0.0549,0.056,0.0561,0.0534,0.0522,0.0485,0.0435,0.0378,0.0321,0.0203,0.0226,0.0142,0.0078,0.0073,0.0052,0.002,0.0001,0.001,-0.0116,0.0015,0.0016,0.0016,0,0.0487,0.0521,0.0558,0.0565,0.0581,0.0593,0.0601,0.059,0.0615,0.0589,0.0601,0.0516,0.0488,0.0367,0.0234,0.0218,0.0104,0.0065,-0.0017,-0.0018,-0.0023,-0.0023,-0.0145,-0.0027,-0.0027,-0.0026,-0.0026,0,0.0528,0.0559,0.0581,0.0602,0.0654,0.0644,0.0694,0.0691,0.0703,0.0752,0.0658,0.0673,0.0498,0.0411,0.0268,0.0126,0.0129,-0.0007,-0.0033,-0.0001,0.0002,-0.0135,-0.0215,-0.0029,-0.0028,-0.0028,-0.0027,0,0.0563,0.0574,0.0626,0.0658,0.0675,0.0712,0.077,0.0812,0.0809,0.087,0.0868,0.0798,0.069,0.051,0.0327,0.0191,-0.0034,-0.0016,0.004,0.0022,-0.0175,-0.0252,-0.0415,-0.0481,-0.0118,-0.0118,-0.0119,0,0.0584,0.0613,0.0675,0.0716,0.0733,0.0791,0.0836,0.0863,0.0925,0.0958,0.0999,0.0912,0.0882,0.0612,0.0355,0.0112,-0.0036,-0.0029,-0.0063,-0.0177,-0.0283,-0.0346,-0.0395,-0.0049,-0.0049,-0.0049,-0.0049,0,0.0632,0.065,0.0696,0.0783,0.0843,0.0921,0.0995,0.1065,0.1113,0.1164,0.1224,0.1201,0.0952,0.0737,0.0398,0.0211,-0.0112,-0.0031,-0.0169,-0.0253,-0.0311,-0.0388,-0.0015,-0.0046,-0.0047,-0.0047,-0.0047,-0.0047,0.0671,0.0716,0.0782,0.0867,0.094,0.105,0.1135,0.1226,0.1341,0.1449,0.1414,0.144,0.1113,0.066,0.0372,-0.0086,-0.0113,-0.0214,-0.0301,-0.0358,-0.0413,-0.0027,-0.0075,-0.0075,-0.0076,-0.0076,-0.0076,0,0.073,0.0787,0.0867,0.0976,0.107,0.1097,0.1243,0.1345,0.1498,0.1606,0.1666,0.1585,0.1152,0.0702,0.0088,-0.0261,-0.0422,-0.0462,-0.0552,-0.0593,-0.0261,-0.0248,-0.031,-0.0309,-0.0309,-0.0309,-0.0309,-0.0309,0.0768,0.086,0.0906,0.1077,0.1152,0.1296,0.1389,0.1538,0.1661,0.1836,0.1914,0.1945,0.1672,0.0472,-0.0305,-0.0506,-0.0761,-0.0832,-0.0966,-0.074,-0.0723,-0.0708,-0.0714,-0.0872,-0.0873,-0.1243,-0.1247,-0.125]}],[{"header":{"parameterUnit":"m.s-1","parameterCategory":2,"la1":30.2991,"la2":30.254,"lo1":-89.0895,"lo2":-89.0444,"dy":0.0017,"dx":0.0017,"nx":28,"ny":28,"refTime":"2025-11-25T03:00:00:Z","depth":"2","parameterNumber":2,"parameterNumberName":"U-component_of_CURRENTS"},"data":[0,0,0,0,0,0,0,0,0,0,0,0,0,0,0,0,0,0,0,0,0,0,0,0,0,0,0,0,0,0,0,0,0,0,0,0,0,0,0,0,0,0,0,0,0,0,0,0,0,0,0,0,0,0,0,0,0,0,0.2184,0.2184,0,0.2219,0.222,0.222,0.223,0.223,0.223,0.223,0.2258,0.2259,0.226,0,0,0,0,0,0,0,0,0,0,0,0,0,0.2127,0.2128,0.2184,0.2184,0.2185,0.2219,0.222,0.222,0.223,0.223,0.223,0.223,0.2258,0.2259,0.226,0,0,0,0,0,0,0,0,0,0,0,0,0,0.2155,0.2129,0.2184,0.2195,0.2197,0.2219,0.222,0.222,0.223,0.223,0.223,0.223,0.2258,0.2259,0.226,0.2269,0,0,0.2264,0.2264,0,0,0,0,0,0,0,0,0.2153,0.2157,0.2193,0.2195,0.2196,0.2222,0.221,0.2237,0.223,0.2216,0.223,0.223,0.2246,0.2249,0.2253,0.227,0.2272,0.2264,0.2265,0.2265,0.2265,0,0,0,0,0,0,0,0.2151,0.2155,0.2196,0.2194,0.2196,0.22,0.2203,0.2215,0.223,0.2217,0.2218,0.2225,0.2247,0.2252,0.2254,0.2272,0.2264,0.2265,0.2266,0.2266,0.2326,0.2327,0,0,0,0,0,0,0.215,0.2154,0.2195,0.2198,0.2176,0.2201,0.2205,0.2212,0.223,0.2233,0.2225,0.2225,0.225,0.2253,0.2255,0.2292,0.2265,0.2266,0.2267,0.2325,0.2326,0.2327,0,0,0,0,0,0,0.2149,0.2154,0.2194,0.2177,0.2183,0.2202,0.221,0.2213,0.2223,0.2236,0.2239,0.2233,0.225,0.2253,0.2271,0.2292,0.2267,0.2268,0.2324,0.2325,0.2326,0.235,0,0,0,0,0,0,0.2147,0.2153,0.2157,0.2177,0.2184,0.2211,0.2211,0.2214,0.2228,0.2229,0.2244,0.2246,0.225,0.227,0.2273,0.2293,0.2269,0.2323,0.2324,0.2326,0.2348,0.2352,0.2355,0,0,0,0,0,0.2145,0.215,0.2157,0.2162,0.2189,0.2212,0.2215,0.2227,0.2228,0.2236,0.2246,0.2246,0.2282,0.2271,0.2275,0.2296,0.2322,0.2324,0.2326,0.2346,0.2351,0.2355,0,0,0,0,0,0,0.2123,0.2152,0.216,0.2172,0.2193,0.2214,0.2222,0.2231,0.2245,0.2246,0.2254,0.2257,0.2284,0.2285,0.2272,0.2319,0.2304,0.2306,0.2318,0.2323,0.2326,0.2335,0.227,0,0,0,0,0,0.2122,0.2136,0.2162,0.2173,0.2184,0.2204,0.2214,0.2226,0.2242,0.2248,0.2258,0.2273,0.2294,0.2303,0.2318,0.2339,0.2356,0.2357,0.236,0.2363,0.2373,0.2416,0.2425,0.2333,0.2333,0.2333,0,0,0.2116,0.2135,0.2142,0.217,0.2186,0.2207,0.221,0.223,0.225,0.2249,0.2273,0.2286,0.2303,0.233,0.2342,0.2333,0.2398,0.2366,0.2368,0.2377,0.242,0.2429,0.2437,0.2335,0.2334,0.2334,0,0,0.2114,0.213,0.2142,0.2163,0.2193,0.2209,0.2217,0.2243,0.2257,0.2281,0.2291,0.2316,0.2337,0.2359,0.2372,0.2404,0.2416,0.2409,0.2434,0.2475,0.2483,0.2491,0.2522,0.2531,0.2409,0.2409,0.2409,0,0.2106,0.2128,0.2148,0.2169,0.2189,0.2211,0.2232,0.2252,0.228,0.23,0.2291,0.2348,0.2355,0.2405,0.2415,0.2414,0.2436,0.2415,0.248,0.2488,0.2495,0.2525,0.2536,0.2411,0.2411,0.241,0.241,0,0.2117,0.2137,0.2147,0.2183,0.2206,0.2228,0.2262,0.2285,0.2301,0.2325,0.2374,0.239,0.2426,0.2432,0.2431,0.2491,0.2489,0.2481,0.2469,0.2506,0.2535,0.2546,0.2413,0.2412,0.2412,0.2411,0,0,0.2096,0.2145,0.2149,0.2169,0.2218,0.2236,0.2277,0.2322,0.2359,0.2383,0.2433,0.2464,0.2479,0.2495,0.2505,0.2537,0.2597,0.253,0.2531,0.256,0.2689,0.2676,0.2686,0.2602,0.2604,0.2606,0.2688,0,0.21,0.2132,0.2163,0.2199,0.222,0.2262,0.23,0.2346,0.2388,0.2441,0.2474,0.2523,0.2503,0.2529,0.2558,0.2595,0.2627,0.2575,0.265,0.2652,0.2636,0.2699,0.2482,0.2536,0.2699,0.27,0.2702,0,0.2102,0.2127,0.2157,0.2214,0.2228,0.2254,0.2328,0.2367,0.2449,0.2491,0.2547,0.2578,0.2638,0.2611,0.2691,0.2661,0.2678,0.2696,0.27,0.2689,0.266,0.2527,0.255,0.2719,0.2718,0.2717,0.2716,0,0.2072,0.2124,0.2145,0.2164,0.2229,0.2256,0.2294,0.2376,0.2426,0.2529,0.2578,0.2652,0.2697,0.2735,0.2767,0.2739,0.2853,0.2817,0.2822,0.282,0.2652,0.2632,0.2876,0.2876,0.2875,0.2875,0.2875,0,0.2064,0.208,0.213,0.2142,0.2178,0.2235,0.2292,0.2354,0.2453,0.2516,0.2595,0.2664,0.2731,0.2796,0.2808,0.286,0.2888,0.2848,0.2852,0.2653,0.2634,0.2801,0.2791,0.2878,0.2878,0.2877,0.2876,0,0.2022,0.2055,0.208,0.2141,0.2161,0.2184,0.2274,0.232,0.2427,0.2516,0.2553,0.2691,0.2787,0.2846,0.293,0.2916,0.2963,0.2968,0.2732,0.2707,0.2888,0.2879,0.2986,0.2987,0.2987,0.2988,0.2988,0,0.2001,0.2009,0.2059,0.2071,0.2096,0.2143,0.2176,0.229,0.2347,0.2524,0.256,0.2704,0.2789,0.2923,0.2939,0.2985,0.3004,0.2801,0.2709,0.2913,0.2905,0.2895,0.2885,0.2486,0.2482,0.2479,0.2477,0,0.1964,0.1979,0.1999,0.2024,0.205,0.2084,0.2145,0.2187,0.2323,0.2411,0.2542,0.2634,0.2781,0.276,0.2843,0.2825,0.2778,0.2741,0.3024,0.2503,0.2451,0.2441,0.2445,0.2449,0.2452,0.2454,0.2455,0.2456,0.1934,0.1934,0.1962,0.1982,0.2002,0.2022,0.203,0.2106,0.2185,0.2291,0.2434,0.25,0.2579,0.2611,0.2555,0.2512,0.2698,0.2567,0.2572,0.2581,0.252,0.2473,0.2462,0.2465,0.2467,0.2469,0.2471,0,0.1906,0.1914,0.1923,0.1939,0.1929,0.1968,0.2004,0.1995,0.2043,0.2159,0.225,0.2144,0.2173,0.2232,0.2145,0.2177,0.2094,0.2072,0.1938,0.1972,0.2,0.1902,0.1684,0.1681,0.1678,0.1675,0,0,0.1898,0.1892,0.1894,0.1871,0.1874,0.1838,0.184,0.1833,0.1879,0.1885,0.1906,0.209,0.2201,0.1914,0.1898,0.1775,0.1841,0.17,0.2345,0.2223,0.2247,0.2317,0.2211,0,0,0,0,0]},{"header":{"parameterUnit":"m.s-1","parameterCategory":2,"la1":30.2991,"la2":30.254,"lo1":-89.0895,"lo2":-89.0444,"dy":0.0017,"dx":0.0017,"nx":28,"ny":28,"refTime":"2025-11-25T03:00:00:Z","depth":"2","parameterNumber":3,"parameterNumberName":"V-component_of_CURRENTS"},"data":[0,0,0,0,0,0,0,0,0,0,0,0,0,0,0,0,0,0,0,0,0,0,0,0,0,0,0,0,0,0,0,0,0,0,0,0,0,0,0,0,0,0,0,0,0,0,0,0,0,0,0,0,0,0,0,0,0,0,0.0119,0.0118,0,0.0059,0.0059,0.0058,0.0017,0.0017,0.0017,0.0017,-0.0069,-0.0071,-0.0073,0,0,0,0,0,0,0,0,0,0,0,0,0,0.0148,0.0148,0.0119,0.0118,0.0118,0.006,0.0059,0.0058,0.0017,0.0017,0.0017,0.0017,-0.0068,-0.0071,-0.0073,0,0,0,0,0,0,0,0,0,0,0,0,0,0.0115,0.0147,0.0119,0.0092,0.0089,0.006,0.0059,0.0057,0.0017,0.0017,0.0017,0.0017,-0.0068,-0.0071,-0.0074,-0.0089,0,0,-0.0084,-0.0085,0,0,0,0,0,0,0,0,0.0117,0.0114,0.0096,0.0093,0.009,0.0047,0.0037,0.0008,0.0017,0.0043,0.0017,0.0017,-0.0032,-0.0038,-0.005,-0.0093,-0.0097,-0.0084,-0.0086,-0.0087,-0.0088,0,0,0,0,0,0,0,0.0119,0.0116,0.0094,0.0096,0.0092,0.0066,0.0061,0.0031,0.0006,0.0041,0.0038,0.0034,-0.0034,-0.0047,-0.0053,-0.0098,-0.0084,-0.0087,-0.0089,-0.009,-0.015,-0.015,0,0,0,0,0,0,0.0133,0.0118,0.0096,0.0092,0.0105,0.0066,0.006,0.006,0.0007,-0.0001,0.0034,0.0032,-0.0041,-0.0049,-0.0056,-0.0063,-0.0087,-0.009,-0.0092,-0.0151,-0.015,-0.015,0,0,0,0,0,0,0.0134,0.0131,0.0098,0.0105,0.0099,0.0066,0.0065,0.0059,0.0049,0.0002,-0.0006,0.0032,-0.0042,-0.0051,-0.0074,-0.0067,-0.0092,-0.0095,-0.0151,-0.015,-0.015,-0.0087,0,0,0,0,0,0,0.0135,0.0132,0.0137,0.0106,0.0099,0.0088,0.0065,0.0058,0.0047,0.0044,-0.0003,-0.0011,-0.0043,-0.0069,-0.0077,-0.0072,-0.0097,-0.0151,-0.0151,-0.015,-0.0089,-0.0084,-0.008,0,0,0,0,0,0.0136,0.0147,0.0138,0.0135,0.0107,0.0089,0.0083,0.0057,0.0048,0.0047,0.0017,-0.0009,-0.0071,-0.0071,-0.0081,-0.0077,-0.0152,-0.0151,-0.015,-0.0092,-0.0085,-0.008,0,0,0,0,0,0,0.0161,0.0143,0.0132,0.0137,0.0118,0.0083,0.0082,0.0064,0.0039,0.0038,-0.0006,-0.0017,-0.0035,-0.0063,-0.0062,-0.0092,-0.0116,-0.0117,-0.0068,-0.0062,-0.0058,-0.0043,-0.01,0,0,0,0,0,0.0171,0.0174,0.0149,0.0152,0.0146,0.0115,0.0106,0.0089,0.0064,0.0053,0.0021,-0.0012,-0.004,-0.0056,-0.0086,-0.0102,-0.013,-0.0105,-0.0101,-0.0096,-0.0091,-0.0128,-0.0126,-0.0147,-0.0147,-0.0147,0,0,0.0181,0.0172,0.0173,0.0157,0.0141,0.014,0.0109,0.0101,0.0099,0.0047,0.0037,0.0003,-0.0041,-0.0058,-0.0069,-0.008,-0.0104,-0.0095,-0.0091,-0.0089,-0.0127,-0.0125,-0.0123,-0.0147,-0.0147,-0.0147,0,0,0.0206,0.0197,0.0208,0.0198,0.0181,0.0163,0.0165,0.0136,0.0123,0.0107,0.0071,0.0045,0.0001,-0.0027,-0.0048,-0.0036,-0.0078,-0.0046,-0.0011,-0.0046,-0.0045,-0.0044,-0.0071,-0.0073,-0.0043,-0.0043,-0.0043,0,0.0219,0.0231,0.0208,0.0216,0.0216,0.0179,0.0192,0.0171,0.0139,0.0134,0.0113,0.0054,0.0016,-0.0006,-0.0003,-0.0025,-0.0049,-0.0028,-0.004,-0.0039,-0.004,-0.0067,-0.007,-0.004,-0.0041,-0.0041,-0.0041,0,0.0252,0.0261,0.0269,0.0269,0.0263,0.0268,0.0242,0.0234,0.0213,0.0191,0.0167,0.0112,0.0079,0.0059,0.0029,0.0013,-0.0005,-0.0028,-0.0051,-0.0033,-0.0064,-0.0068,-0.0036,-0.0037,-0.0038,-0.0039,0,0,0.0282,0.0291,0.0293,0.0309,0.0294,0.0296,0.0295,0.0285,0.0294,0.0247,0.0249,0.0188,0.0159,0.0134,0.009,0.0054,0.003,0.0018,0.0015,-0.0003,-0.0041,-0.0044,-0.005,0.0005,0.0004,0.0004,-0.0059,0,0.0315,0.035,0.0341,0.0374,0.0392,0.0366,0.0369,0.0354,0.0336,0.0327,0.0263,0.0247,0.0187,0.0176,0.013,0.006,0.0021,0.005,-0.006,-0.0063,-0.0065,-0.0054,-0.0049,-0.0104,-0.0064,-0.0065,-0.0065,0,0.0351,0.0372,0.0412,0.0437,0.0442,0.0451,0.0463,0.0464,0.0436,0.0424,0.039,0.034,0.0285,0.0231,0.0115,0.0137,0.0055,-0.0008,-0.0013,-0.0041,-0.0075,-0.0118,-0.0114,-0.0073,-0.0072,-0.0071,-0.0071,0,0.039,0.0423,0.0461,0.0468,0.0483,0.0496,0.0504,0.0493,0.0516,0.0491,0.0502,0.0419,0.0391,0.0274,0.0143,0.0129,0.0014,-0.0023,-0.0107,-0.0108,-0.0138,-0.0141,-0.0111,-0.0111,-0.0111,-0.0111,-0.011,0,0.043,0.0461,0.0484,0.0505,0.0556,0.0546,0.0596,0.0592,0.0603,0.0647,0.0558,0.0569,0.04,0.0313,0.0175,0.0033,0.0037,-0.0096,-0.0124,-0.0115,-0.0115,-0.0117,-0.0117,-0.0113,-0.0112,-0.0112,-0.0112,0,0.0465,0.0477,0.0528,0.056,0.0577,0.0614,0.067,0.0708,0.0706,0.0761,0.076,0.0687,0.0578,0.0404,0.0224,0.0093,-0.0056,-0.0112,-0.0083,-0.0106,-0.0165,-0.0161,-0.0213,-0.0213,-0.0214,-0.0214,-0.0215,0,0.0485,0.0515,0.0576,0.0616,0.0634,0.069,0.0734,0.0759,0.0816,0.0842,0.0878,0.079,0.0749,0.0481,0.023,-0.0007,-0.0043,-0.016,-0.0193,-0.0154,-0.0176,-0.0171,-0.0166,-0.0211,-0.0211,-0.0211,-0.0211,0,0.053,0.055,0.0594,0.0679,0.0737,0.0812,0.0882,0.0945,0.0987,0.1033,0.1079,0.1048,0.0795,0.0555,0.0226,0.0056,-0.0123,-0.0172,-0.0143,-0.0177,-0.0155,-0.0175,-0.017,-0.0214,-0.0214,-0.0213,-0.0213,-0.0213,0.0566,0.0609,0.0672,0.0755,0.0827,0.0928,0.1004,0.1084,0.1186,0.1261,0.1228,0.1182,0.0896,0.0476,0.0184,-0.0131,-0.0119,-0.024,-0.0238,-0.0237,-0.0216,-0.0196,-0.0258,-0.0258,-0.0258,-0.0258,-0.0258,0,0.0613,0.067,0.0747,0.0852,0.0941,0.0975,0.1103,0.1174,0.1302,0.1358,0.1389,0.1111,0.0842,0.0518,0.0055,-0.0215,-0.025,-0.0306,-0.0292,-0.0288,-0.0284,-0.0266,-0.0322,-0.0323,-0.0324,-0.0324,0,0,0.0645,0.0727,0.0771,0.0932,0.1012,0.1143,0.1225,0.1316,0.138,0.1418,0.1395,0.1334,0.0944,0.06,0.0217,-0.0045,-0.0103,-0.0105,-0.0027,0.0038,0.0045,-0.0224,-0.0189,0,0,0,0,0]}],[{"header":{"parameterUnit":"m.s-1","parameterCategory":2,"la1":30.2991,"la2":30.254,"lo1":-89.0895,"lo2":-89.0444,"dy":0.0017,"dx":0.0017,"nx":28,"ny":28,"refTime":"2025-11-25T03:00:00:Z","depth":"4","parameterNumber":2,"parameterNumberName":"U-component_of_CURRENTS"},"data":[0,0,0,0,0,0,0,0,0,0,0,0,0,0,0,0,0,0,0,0,0,0,0,0,0,0,0,0,0,0,0,0,0,0,0,0,0,0,0,0,0,0,0,0,0,0,0,0,0,0,0,0,0,0,0,0,0,0,0.1396,0.1396,0,0.1456,0.1456,0.1457,0.1507,0.1508,0.1509,0.1509,0.1568,0.1569,0.157,0,0,0,0,0,0,0,0,0,0,0,0,0,0.1314,0.1315,0.1395,0.1396,0.1397,0.1456,0.1457,0.1457,0.1507,0.1508,0.1509,0.151,0.1568,0.1569,0.157,0,0,0,0,0,0,0,0,0,0,0,0,0,0.1358,0.1316,0.1395,0.1431,0.1435,0.1456,0.1457,0.1457,0.1507,0.1508,0.1509,0.151,0.1568,0.1569,0.157,0.1558,0,0,0.1574,0.1575,0,0,0,0,0,0,0,0,0.1355,0.136,0.1425,0.1428,0.1433,0.1477,0.145,0.1491,0.1507,0.1477,0.1509,0.1511,0.1538,0.1542,0.1548,0.156,0.1563,0.1575,0.1575,0.1576,0.1576,0,0,0,0,0,0,0,0.1352,0.1358,0.1418,0.1425,0.143,0.144,0.1448,0.1458,0.15,0.148,0.1484,0.1494,0.154,0.1547,0.155,0.1564,0.1575,0.1576,0.1577,0.1577,0.1665,0.1666,0,0,0,0,0,0,0.1348,0.1355,0.1416,0.142,0.1398,0.1441,0.1449,0.146,0.15,0.1507,0.1493,0.1496,0.1544,0.1548,0.1552,0.1628,0.1576,0.1577,0.1578,0.1664,0.1665,0.1667,0,0,0,0,0,0,0.1346,0.1353,0.1413,0.139,0.1399,0.1442,0.1453,0.1461,0.1499,0.151,0.1517,0.1528,0.1545,0.155,0.1595,0.1627,0.1578,0.1579,0.1662,0.1664,0.1666,0.1722,0,0,0,0,0,0,0.1343,0.1351,0.1371,0.139,0.14,0.1446,0.1453,0.1461,0.1502,0.1508,0.1541,0.1546,0.1546,0.1593,0.1596,0.1628,0.158,0.166,0.1663,0.1665,0.1718,0.1726,0.1732,0,0,0,0,0,0.134,0.1357,0.1372,0.138,0.1421,0.1447,0.1454,0.1485,0.1503,0.1524,0.1553,0.1547,0.1613,0.1595,0.1599,0.1632,0.1658,0.1662,0.1665,0.1715,0.1724,0.1732,0,0,0,0,0,0,0.1331,0.1364,0.1381,0.1408,0.1436,0.1457,0.1483,0.1502,0.154,0.1556,0.1564,0.1571,0.1622,0.1619,0.1599,0.1666,0.1635,0.1639,0.1672,0.168,0.1687,0.1686,0.1581,0,0,0,0,0,0.1338,0.1363,0.1391,0.1417,0.1434,0.1464,0.1485,0.1507,0.1537,0.1556,0.1581,0.1608,0.1632,0.1652,0.1669,0.1704,0.171,0.1729,0.1736,0.1742,0.1744,0.1784,0.1795,0.1678,0.1678,0.1678,0,0,0.1341,0.1365,0.138,0.1418,0.1444,0.1472,0.148,0.1521,0.1552,0.1555,0.1615,0.1635,0.1647,0.169,0.1713,0.1697,0.1781,0.1746,0.1751,0.175,0.1789,0.18,0.181,0.168,0.168,0.168,0,0,0.1351,0.1384,0.1406,0.1434,0.148,0.1498,0.1516,0.1557,0.1589,0.1639,0.1653,0.1694,0.1731,0.1749,0.1759,0.1815,0.1816,0.1827,0.1864,0.1904,0.1914,0.1922,0.1954,0.1964,0.1832,0.1832,0.1832,0,0.1357,0.1388,0.1417,0.1446,0.1474,0.1513,0.1543,0.1576,0.163,0.1658,0.1669,0.1743,0.1756,0.1805,0.1829,0.1831,0.1854,0.183,0.1913,0.1921,0.1929,0.1959,0.1971,0.1835,0.1835,0.1834,0.1834,0,0.1375,0.1413,0.1431,0.148,0.1512,0.1548,0.1592,0.1638,0.1681,0.1711,0.1783,0.1808,0.1852,0.1866,0.1866,0.1932,0.1931,0.1916,0.189,0.1944,0.1973,0.1983,0.184,0.1838,0.1837,0.1837,0,0,0.1353,0.1429,0.1439,0.147,0.1538,0.1561,0.1623,0.168,0.173,0.1786,0.1849,0.1895,0.1921,0.1935,0.195,0.1985,0.2062,0.1983,0.1984,0.2011,0.2158,0.2024,0.2022,0.2071,0.2073,0.2074,0.2158,0,0.1363,0.1416,0.1456,0.1514,0.1545,0.1604,0.1655,0.1716,0.1777,0.1847,0.189,0.1955,0.1945,0.1985,0.2018,0.2057,0.2093,0.2041,0.2103,0.2104,0.1976,0.203,0.2081,0.2166,0.2169,0.217,0.2172,0,0.1361,0.1402,0.1458,0.1537,0.1557,0.1602,0.1696,0.1749,0.1847,0.1901,0.1972,0.2012,0.2086,0.2067,0.2155,0.2129,0.215,0.2168,0.2171,0.203,0.1989,0.2098,0.2191,0.2189,0.2188,0.2187,0.2186,0,0.1318,0.14,0.1446,0.1474,0.1567,0.1614,0.1671,0.1768,0.1827,0.1949,0.2009,0.2091,0.2153,0.2194,0.2233,0.2213,0.2319,0.2289,0.2184,0.2175,0.2246,0.2236,0.2344,0.2344,0.2344,0.2343,0.2343,0,0.1297,0.1337,0.1436,0.1461,0.1526,0.1601,0.1682,0.1758,0.1872,0.1939,0.2038,0.2099,0.2193,0.2256,0.2271,0.2261,0.2351,0.2198,0.2188,0.2269,0.226,0.2254,0.2243,0.2346,0.2346,0.2345,0.2345,0,0.1237,0.1303,0.1361,0.1469,0.1507,0.1555,0.1682,0.1737,0.1862,0.1957,0.2004,0.2139,0.222,0.2286,0.2366,0.2299,0.231,0.2281,0.2378,0.2372,0.2132,0.2123,0.2169,0.2165,0.2161,0.2158,0.2156,0,0.1207,0.1233,0.1351,0.139,0.1445,0.153,0.1586,0.1719,0.1778,0.1956,0.1988,0.2123,0.2192,0.2199,0.2275,0.2299,0.2266,0.2256,0.217,0.2128,0.2115,0.2111,0.2107,0.2151,0.215,0.2149,0.2148,0,0.1149,0.1204,0.1252,0.1331,0.1398,0.1461,0.1554,0.1587,0.1734,0.1861,0.193,0.1978,0.2064,0.2116,0.2155,0.2161,0.2252,0.2219,0.2225,0.2145,0.2106,0.2096,0.2096,0.2136,0.2138,0.2139,0.2139,0,0.1103,0.1123,0.1194,0.1255,0.1334,0.1371,0.143,0.1499,0.1572,0.1761,0.1779,0.1919,0.2043,0.2047,0.2081,0.2081,0.2041,0.1961,0.198,0.1994,0.1895,0.1818,0.1758,0,0,0,0,0,0.1047,0.106,0.1112,0.1167,0.1244,0.1289,0.1398,0.1461,0.1598,0.1602,0.1687,0.1756,0.1814,0.1889,0.1854,0.2002,0.2048,0.1952,0.1966,0.207,0.2084,0.1982,0,0,0,0,0,0,0.1005,0.1047,0.1074,0.1084,0.1107,0.1172,0.1237,0.1331,0.1341,0.149,0.1534,0.1643,0.173,0.1814,0.1818,0.1839,0.1811,0.2039,0.2035,0.2062,0.2075,0.2086,0.1986,0,0,0,0,0]},{"header":{"parameterUnit":"m.s-1","parameterCategory":2,"la1":30.2991,"la2":30.254,"lo1":-89.0895,"lo2":-89.0444,"dy":0.0017,"dx":0.0017,"nx":28,"ny":28,"refTime":"2025-11-25T03:00:00:Z","depth":"4","parameterNumber":3,"parameterNumberName":"V-component_of_CURRENTS"},"data":[0,0,0,0,0,0,0,0,0,0,0,0,0,0,0,0,0,0,0,0,0,0,0,0,0,0,0,0,0,0,0,0,0,0,0,0,0,0,0,0,0,0,0,0,0,0,0,0,0,0,0,0,0,0,0,0,0,0,-0.0004,-0.0005,0,-0.0045,-0.0045,-0.0046,-0.0078,-0.0078,-0.0079,-0.0079,-0.0154,-0.0155,-0.0157,0,0,0,0,0,0,0,0,0,0,0,0,0,0.0009,0.0009,-0.0004,-0.0005,-0.0005,-0.0045,-0.0045,-0.0046,-0.0078,-0.0078,-0.0079,-0.0079,-0.0153,-0.0155,-0.0157,0,0,0,0,0,0,0,0,0,0,0,0,0,-0.0011,0.0009,-0.0004,-0.0025,-0.0027,-0.0045,-0.0045,-0.0046,-0.0078,-0.0078,-0.0079,-0.0079,-0.0152,-0.0155,-0.0158,-0.0168,0,0,-0.0166,-0.0167,0,0,0,0,0,0,0,0,-0.001,-0.0012,-0.0022,-0.0024,-0.0026,-0.0056,-0.0068,-0.0088,-0.0078,-0.006,-0.0079,-0.0079,-0.0123,-0.0128,-0.0136,-0.0171,-0.0174,-0.0166,-0.0168,-0.0169,-0.017,0,0,0,0,0,0,0,-0.0009,-0.0011,-0.0022,-0.0022,-0.0025,-0.0045,-0.0048,-0.0072,-0.0091,-0.0062,-0.0064,-0.0066,-0.0125,-0.0134,-0.0138,-0.0176,-0.0166,-0.0168,-0.017,-0.0171,-0.0222,-0.0222,0,0,0,0,0,0,0.0001,-0.0009,-0.002,-0.0023,-0.0018,-0.0044,-0.0048,-0.0047,-0.009,-0.0096,-0.0066,-0.0068,-0.0129,-0.0135,-0.0141,-0.0145,-0.0169,-0.0171,-0.0173,-0.0222,-0.0222,-0.0222,0,0,0,0,0,0,0.0001,0.0,-0.0019,-0.0016,-0.002,-0.0044,-0.0043,-0.0047,-0.0055,-0.0093,-0.01,-0.0069,-0.0129,-0.0137,-0.0157,-0.0149,-0.0173,-0.0175,-0.0223,-0.0222,-0.0222,-0.016,0,0,0,0,0,0,0.0002,0.0001,0.0005,-0.0015,-0.002,-0.0023,-0.0042,-0.0048,-0.0056,-0.0058,-0.0097,-0.0105,-0.013,-0.0153,-0.016,-0.0153,-0.0177,-0.0223,-0.0222,-0.0222,-0.0163,-0.0158,-0.0154,0,0,0,0,0,0.0003,0.0013,0.0005,0.0004,-0.0013,-0.0022,-0.0026,-0.0046,-0.0056,-0.0055,-0.008,-0.0103,-0.0155,-0.0155,-0.0163,-0.0157,-0.0223,-0.0223,-0.0222,-0.0165,-0.0159,-0.0154,0,0,0,0,0,0,0.002,0.001,0.0002,0.0008,-0.0004,-0.0027,-0.0027,-0.0041,-0.0061,-0.0063,-0.01,-0.0109,-0.0124,-0.0149,-0.0148,-0.0171,-0.0193,-0.0194,-0.0147,-0.0141,-0.0137,-0.0121,-0.0179,0,0,0,0,0,0.0027,0.0032,0.0016,0.0021,0.0017,-0.0004,-0.0011,-0.0023,-0.0042,-0.0051,-0.0077,-0.0105,-0.0128,-0.0141,-0.0166,-0.0177,-0.0203,-0.0179,-0.0175,-0.0171,-0.0164,-0.0196,-0.0193,-0.022,-0.022,-0.022,0,0,0.0035,0.003,0.0032,0.0025,0.0014,0.0018,-0.0009,-0.0013,-0.001,-0.0056,-0.0061,-0.0091,-0.0128,-0.014,-0.0149,-0.0159,-0.0177,-0.017,-0.0166,-0.0161,-0.0195,-0.0192,-0.019,-0.0219,-0.022,-0.022,0,0,0.0056,0.0049,0.0061,0.0057,0.0047,0.0036,0.0037,0.0019,0.0009,-0.0001,-0.0031,-0.0053,-0.0089,-0.011,-0.0127,-0.0113,-0.0152,-0.0124,-0.0088,-0.0119,-0.0117,-0.0115,-0.0141,-0.0142,-0.0121,-0.0121,-0.0121,0,0.0065,0.0079,0.0063,0.0074,0.0076,0.0048,0.0063,0.0051,0.0028,0.0025,0.0006,-0.0042,-0.0073,-0.0087,-0.0082,-0.0102,-0.0126,-0.0103,-0.0112,-0.0111,-0.0111,-0.0138,-0.014,-0.0118,-0.0118,-0.0119,-0.0119,0,0.0095,0.0107,0.0114,0.0121,0.0121,0.0128,0.0114,0.011,0.0094,0.0079,0.0061,0.0016,-0.001,-0.0026,-0.005,-0.006,-0.008,-0.0102,-0.0122,-0.0104,-0.0134,-0.0137,-0.0114,-0.0115,-0.0116,-0.0117,0,0,0.0114,0.0132,0.0135,0.015,0.0148,0.0153,0.0161,0.016,0.0169,0.0136,0.0139,0.0095,0.0068,0.0048,0.001,-0.0017,-0.0035,-0.0053,-0.0056,-0.0072,-0.0101,-0.0109,-0.0114,-0.0061,-0.0061,-0.0061,-0.0121,0,0.0142,0.0178,0.0178,0.0212,0.023,0.0216,0.0227,0.0222,0.0209,0.0204,0.0156,0.0142,0.0097,0.0085,0.0051,-0.0013,-0.0042,-0.0017,-0.0121,-0.0124,-0.0129,-0.0117,-0.0062,-0.0124,-0.0125,-0.0125,-0.0126,0,0.0169,0.0192,0.0233,0.0264,0.027,0.0286,0.0303,0.0311,0.0295,0.0285,0.0261,0.0219,0.0179,0.0134,0.0038,0.0056,-0.0013,-0.0068,-0.0072,-0.0102,-0.0139,-0.0149,-0.0133,-0.0132,-0.0132,-0.0131,-0.0131,0,0.019,0.023,0.0267,0.0277,0.0304,0.0321,0.0335,0.0335,0.0355,0.034,0.0346,0.0284,0.0256,0.0164,0.0052,0.0044,-0.006,-0.0087,-0.016,-0.0162,-0.0164,-0.0165,-0.0155,-0.0155,-0.0155,-0.0155,-0.0155,0,0.0217,0.0246,0.0282,0.0302,0.035,0.0356,0.0401,0.0405,0.0419,0.0449,0.0392,0.0389,0.0262,0.0185,0.0075,-0.0047,-0.0044,-0.0148,-0.0176,-0.0137,-0.0134,-0.0166,-0.0167,-0.0157,-0.0157,-0.0156,-0.0156,0,0.0229,0.0252,0.0299,0.0342,0.0362,0.0395,0.0454,0.0485,0.0493,0.0528,0.0528,0.047,0.0369,0.0237,0.0085,-0.0009,-0.0132,-0.0179,-0.0116,-0.014,-0.022,-0.0216,-0.0262,-0.0263,-0.0263,-0.0264,-0.0264,0,0.0237,0.0263,0.033,0.0365,0.0389,0.0443,0.0483,0.0518,0.0557,0.0575,0.0592,0.0516,0.0455,0.0247,0.0095,-0.0109,-0.0146,-0.0209,-0.0224,-0.0207,-0.023,-0.0226,-0.0222,-0.0265,-0.0265,-0.0266,-0.0266,0,0.025,0.0273,0.0312,0.0387,0.0442,0.0508,0.0569,0.0605,0.0645,0.0659,0.0649,0.0543,0.0429,0.0255,0.0099,-0.0052,-0.0167,-0.0216,-0.0216,-0.0231,-0.0212,-0.0233,-0.0228,-0.0268,-0.0268,-0.0267,-0.0267,0,0.0251,0.028,0.0331,0.0397,0.0474,0.0545,0.0582,0.0629,0.0669,0.0694,0.0687,0.0567,0.0502,0.0284,0.0138,-0.0008,-0.0056,-0.0112,-0.0119,-0.0118,-0.0066,-0.002,-0.0034,0,0,0,0,0,0.024,0.027,0.0337,0.0409,0.0491,0.0535,0.0625,0.0658,0.0703,0.0707,0.0703,0.0598,0.0392,0.0303,0.0155,0.01,-0.0098,-0.008,-0.017,-0.028,-0.0278,-0.0242,0,0,0,0,0,0,0.0228,0.028,0.0323,0.0407,0.0459,0.0548,0.0608,0.0645,0.065,0.0676,0.0573,0.0542,0.0341,0.047,0.0143,0.01,0.0019,-0.017,-0.0173,-0.0282,-0.0279,-0.0277,-0.024,0,0,0,0,0]}]]